Flag for Norway Weather past 2 weeks in Stange, Norway

Now
35 °F

Chilly.


Feels Like: 28 °F
Forecast: 31 / 40 °F
Wind: 8 mph from South

Location: Haugedalshogda

Current Time: Mar 1, 2015 at 4:27:33 AM

Latest Report: Mar 1, 2015 at 3:00 AM


Visibility: N/A

Pressure: 29.38 "Hg

Humidity: 87%

Dew point: 31 °F

Location of StangeLocation

Historic Weather in Stange — Graph

°F

Stange temperature yesterday

Maximum temperature yesterday: 35 °F (at 7:00 PM)
Minimum temperature yesterday: 24 °F (at 2:00 AM)
Average temperature yesterday: 31 °F

Past Weeks' High & Low Weather Summary

 TemperatureHumidityPressure
High45 °F (Feb 19, 12:00 PM)96% (Feb 21, 8:00 AM)30.61 "Hg (Feb 21, 8:00 AM)
Low6 °F (Feb 22, 11:00 PM)47% (Feb 20, 1:00 PM)29.00 "Hg (Feb 23, 3:00 PM)
Average30 °F86%29.73 "Hg
* Reported Feb 14 3:00 AM — Mar 1 3:00 AM, Stange, Weather by CustomWeather, © 2015

Note: Actual official high and low records may vary slightly from our data, if they occured in-between our weather recording intervals... More about our weather records

Advertising

Stange weather history for previous 24 hours

 ConditionsComfort  
Time TempWeatherWind HumidityBarometerVisibility
3:00 AM
Sun, Mar 1
35 °FChilly.8 mph87%29.38 "HgN/A
2:00 AM35 °FChilly.7 mph88%29.38 "HgN/A
1:00 AM35 °FChilly.8 mph87%29.41 "HgN/A
12:00 AM34 °FChilly.7 mph90%29.44 "HgN/A
11:00 PM
Sat, Feb 28
34 °FChilly.6 mph90%29.47 "HgN/A
10:00 PM35 °FChilly.6 mph89%29.50 "HgN/A
9:00 PM35 °FChilly.7 mph85%29.54 "HgN/A
8:00 PM34 °FChilly.6 mph91%29.56 "HgN/A
7:00 PM35 °FChilly.7 mph85%29.57 "HgN/A
6:00 PM35 °FChilly.7 mph87%29.59 "HgN/A
5:00 PM34 °FChilly.7 mph89%29.60 "HgN/A
4:00 PM35 °FChilly.8 mph87%29.61 "HgN/A
3:00 PM35 °FChilly.8 mph86%29.63 "HgN/A
2:00 PM34 °FChilly.7 mph85%29.65 "HgN/A
1:00 PM35 °FChilly.9 mph80%29.66 "HgN/A
12:00 PM34 °FChilly.9 mph79%29.68 "HgN/A
11:00 AM33 °FChilly.5 mph81%29.71 "HgN/A
10:00 AM31 °FChilly.8 mph83%29.73 "HgN/A
9:00 AM30 °FChilly.7 mph87%29.75 "HgN/A
8:00 AM29 °FChilly.7 mph91%29.77 "HgN/A
7:00 AM29 °FChilly.5 mph95%29.78 "HgN/A
6:00 AM28 °FChilly.3 mph96%29.78 "HgN/A
5:00 AM27 °FChilly.2 mph96%29.80 "HgN/A
Weather by CustomWeather, © 2015

See weather overviewHow to use our weather pages